This is the latest recevied weather packets stored in our database for station/object DG1ROH. If no packets are shown the sender has not sent any weather packets the latest 10 day(s).
| Time | Temp. | Humidity | Pressure | Rain* | Wind** | Luminosity | Snow |
|---|---|---|---|---|---|---|---|
| 1777389058 | 15.56° C | 36% | 1024.2 hPa | 0 mm | - | 353 W/m² | - |
| 1777388936 | 15.56° C | 36% | 1024.2 hPa | 0 mm | - | 410 W/m² | - |
| 1777388816 | 15° C | 35% | 1024.2 hPa | 0 mm | - | 424 W/m² | - |
| 1777388695 | 15° C | 32% | 1024.2 hPa | 0 mm | - | 427 W/m² | - |
| 1777388572 | 15° C | 33% | 1024.2 hPa | 0 mm | - | 432 W/m² | - |
| 1777388449 | 15° C | 33% | 1024.3 hPa | 0 mm | - | 439 W/m² | - |
| 1777388329 | 15.56° C | 33% | 1024.3 hPa | 0 mm | - | 429 W/m² | - |
| 1777388210 | 15.56° C | 32% | 1024.3 hPa | 0 mm | - | 443 W/m² | - |
| 1777388092 | 15.56° C | 33% | 1024.3 hPa | 0 mm | - | 455 W/m² | - |
| 1777387970 | 15° C | 35% | 1024.3 hPa | 0 mm | - | 411 W/m² | - |
| 1777387849 | 15° C | 33% | 1024.3 hPa | 0 mm | - | 417 W/m² | - |
| 1777387732 | 15° C | 31% | 1024.3 hPa | 0 mm | - | 406 W/m² | - |
| 1777387607 | 15° C | 34% | 1024.4 hPa | 0 mm | - | 438 W/m² | - |
| 1777387487 | 15° C | 32% | 1024.4 hPa | 0 mm | - | 445 W/m² | - |
| 1777387369 | 15.56° C | 31% | 1024.4 hPa | 0 mm | - | 438 W/m² | - |
| 1777387246 | 16.11° C | 31% | 1024.3 hPa | 0 mm | - | 434 W/m² | - |
| 1777387125 | 16.11° C | 33% | 1024.3 hPa | 0 mm | - | 468 W/m² | - |
| 1777387006 | 16.11° C | 31% | 1024.3 hPa | 0 mm | - | 478 W/m² | - |
| 1777386885 | 16.11° C | 32% | 1024.3 hPa | 0 mm | - | 485 W/m² | - |
| 1777386771 | 16.11° C | 36% | 1024.4 hPa | 0 mm | - | 492 W/m² | - |
| 1777386646 | 15.56° C | 37% | 1024.2 hPa | 0 mm | - | 496 W/m² | - |
| 1777386524 | 15.56° C | 34% | 1024.3 hPa | 0 mm | - | 501 W/m² | - |
| 1777386402 | 15.56° C | 33% | 1024.4 hPa | 0 mm | - | 503 W/m² | - |
| 1777386281 | 15.56° C | 36% | 1024.4 hPa | 0 mm | - | 506 W/m² | - |
| 1777386161 | 15.56° C | 33% | 1024.4 hPa | 0 mm | - | 512 W/m² | - |
* Rain latest hour (hover to see other rain measurements)
** Current wind speed in m/s (hover to see current wind gust speed)